Location: Unspecified
(0.0000°N, 0.0000°E)
Time: 17:06:45
(UTC+00:00)

Hubble Space Telescope - Pass Details

Date: 14 December 2018
Orbit: 537 x 540 km, 28.5° (Epoch: 11 December)

Event Time Altitude Azimuth Distance (km) Brightness Sun altitude
Rises 18:34:43 0° 242° (WSW) 2,673 6.7 -9.2°
Reaches altitude 10° 18:36:59 10° 244° (WSW) 1,782 5.1 -9.7°
Maximum altitude 18:41:06 75° 329° (NNW) 554 0.8 -10.6°
Enters shadow 18:44:21 16° 54° (NE) 1,448 2.3 -11.4°
